When you browse on this site, cookies collect data to enhance your experience and personalize the content and advertising you see.
Visit our Privacy Policy to learn more. By continuing to use the site, you agree to this use of cookies and data.
  • In United Kingdom
  • List of Countries
  • For 7 days
  • Water Temperature
  • Satellite Maps
  • Weather Map
  • Weather Widgets
  • user-avatar
    Login

    Hourly Weather Herāt

    Today, 24 March, Sunday

    Time Temperature Precipitation Wind Pressure Humidity
    00:00 +14°C° 0 mm 2 mps 681 mmHg 26%
    01:00 +14°C° 0 mm 2 mps 680 mmHg 28%
    02:00 +12°C° 0 mm 3 mps 680 mmHg 30%
    03:00 +12°C° 0 mm 3 mps 680 mmHg 33%
    04:00 +12°C° 0 mm 3 mps 679 mmHg 33%
    05:00 +12°C° 0 mm 4 mps 679 mmHg 35%
    06:00 +12°C° 0 mm 4 mps 680 mmHg 36%
    07:00 +12°C° 0 mm 4 mps 680 mmHg 37%
    08:00 +14°C° 0 mm 4 mps 680 mmHg 34%
    09:00 +17°C° 0 mm 4 mps 680 mmHg 30%
    10:00 +19°C° 0 mm 4 mps 681 mmHg 28%
    11:00 +20°C° 0 mm 4 mps 680 mmHg 26%
    12:00 +21°C° 0 mm 4 mps 680 mmHg 25%
    13:00 +22°C° 0 mm 4 mps 680 mmHg 23%
    14:00 +22°C° 0 mm 4 mps 680 mmHg 23%
    15:00 +22°C° 0 mm 4 mps 679 mmHg 22%
    16:00 +22°C° 0 mm 4 mps 679 mmHg 21%
    17:00 +21°C° 0 mm 4 mps 679 mmHg 24%
    18:00 +20°C° 0 mm 4 mps 678 mmHg 26%
    19:00 +19°C° 0 mm 4 mps 678 mmHg 28%
    20:00 +18°C° 0 mm 4 mps 678 mmHg 30%
    21:00 +18°C° 0 mm 4 mps 678 mmHg 32%
    22:00 +17°C° 0 mm 4 mps 678 mmHg 34%
    23:00 +15°C° 0 mm 4 mps 678 mmHg 36%

    Tomorrow, 25 March, Monday

    Time Temperature Precipitation Wind Pressure Humidity
    00:00 +15°C° 0 mm 4 mps 678 mmHg 37%
    01:00 +15°C° 0 mm 4 mps 678 mmHg 39%
    02:00 +14°C° 0 mm 4 mps 678 mmHg 39%
    03:00 +14°C° 0 mm 5 mps 678 mmHg 38%
    04:00 +14°C° 0 mm 5 mps 678 mmHg 38%
    05:00 +14°C° 0 mm 5 mps 678 mmHg 38%
    06:00 +14°C° 0 mm 4 mps 679 mmHg 38%
    07:00 +14°C° 0 mm 4 mps 679 mmHg 37%
    08:00 +18°C° 0 mm 4 mps 680 mmHg 35%
    09:00 +20°C° 0 mm 5 mps 680 mmHg 32%
    10:00 +22°C° 0 mm 6 mps 681 mmHg 29%
    11:00 +23°C° 0 mm 6 mps 681 mmHg 27%
    12:00 +24°C° 0 mm 6 mps 680 mmHg 25%
    13:00 +26°C° 0 mm 6 mps 680 mmHg 24%
    14:00 +26°C° 0 mm 7 mps 680 mmHg 23%
    15:00 +26°C° 0 mm 7 mps 680 mmHg 23%
    16:00 +26°C° 0 mm 7 mps 679 mmHg 23%
    17:00 +24°C° 0 mm 6 mps 679 mmHg 25%
    18:00 +23°C° 0 mm 6 mps 679 mmHg 28%
    19:00 +22°C° 0 mm 5 mps 679 mmHg 31%
    20:00 +21°C° 0 mm 5 mps 679 mmHg 32%
    21:00 +20°C° 0 mm 4 mps 679 mmHg 33%
    22:00 +20°C° 0 mm 4 mps 679 mmHg 35%
    23:00 +19°C° 0 mm 5 mps 678 mmHg 35%

    Day after tomorrow, 26 March, Tuesday

    Time Temperature Precipitation Wind Pressure Humidity
    00:00 +19°C° 0 mm 5 mps 678 mmHg 35%
    01:00 +19°C° 0 mm 5 mps 678 mmHg 36%
    02:00 +19°C° 0 mm 5 mps 678 mmHg 36%
    03:00 +19°C° 0 mm 5 mps 678 mmHg 36%
    04:00 +19°C° 0 mm 5 mps 678 mmHg 36%
    05:00 +19°C° 0 mm 6 mps 678 mmHg 37%
    06:00 +19°C° 0 mm 6 mps 678 mmHg 37%
    07:00 +19°C° 0 mm 6 mps 678 mmHg 37%
    08:00 +20°C° 0 mm 6 mps 679 mmHg 37%
    09:00 +21°C° 0 mm 7 mps 679 mmHg 38%
    10:00 +22°C° 0 mm 7 mps 679 mmHg 38%
    11:00 +23°C° 0 mm 7 mps 679 mmHg 40%
    12:00 +23°C° 0 mm 8 mps 679 mmHg 42%
    13:00 +23°C° 0 mm 8 mps 680 mmHg 44%
    14:00 +23°C° 0.1 mm 7 mps 679 mmHg 45%
    15:00 +23°C° 0.1 mm 7 mps 679 mmHg 46%
    16:00 +23°C° 0.1 mm 6 mps 679 mmHg 47%
    17:00 +22°C° 0 mm 6 mps 679 mmHg 49%
    18:00 +21°C° 0 mm 5 mps 679 mmHg 50%
    19:00 +20°C° 0 mm 5 mps 679 mmHg 51%
    20:00 +20°C° 0 mm 5 mps 679 mmHg 51%
    21:00 +20°C° 0 mm 4 mps 679 mmHg 50%
    22:00 +20°C° 0 mm 4 mps 679 mmHg 50%
    23:00 +20°C° 0.1 mm 5 mps 679 mmHg 50%

    27 March, Wednesday

    Time Temperature Precipitation Wind Pressure Humidity
    00:00 +20°C° 0.1 mm 5 mps 679 mmHg 50%
    01:00 +20°C° 0.1 mm 6 mps 678 mmHg 50%
    02:00 +20°C° 0.2 mm 6 mps 678 mmHg 52%
    03:00 +19°C° 0.2 mm 6 mps 678 mmHg 55%
    04:00 +19°C° 0.2 mm 6 mps 677 mmHg 57%
    05:00 +19°C° 0.8 mm 6 mps 677 mmHg 58%
    06:00 +19°C° 0.8 mm 5 mps 678 mmHg 60%
    07:00 +19°C° 0.8 mm 4 mps 678 mmHg 61%
    08:00 +21°C° 0 mm 7 mps 678 mmHg 54%
    09:00 +23°C° 0 mm 9 mps 679 mmHg 46%
    10:00 +24°C° 0 mm 12 mps 680 mmHg 38%
    11:00 +24°C° 0.1 mm 11 mps 679 mmHg 39%
    12:00 +24°C° 0.1 mm 10 mps 679 mmHg 39%
    13:00 +24°C° 0.1 mm 9 mps 678 mmHg 39%
    14:00 +24°C° 0.5 mm 7 mps 678 mmHg 43%
    15:00 +23°C° 0.5 mm 5 mps 677 mmHg 46%
    16:00 +24°C° 0.5 mm 3 mps 677 mmHg 50%
    17:00 +21°C° 1.2 mm 4 mps 677 mmHg 56%
    18:00 +20°C° 1.2 mm 6 mps 677 mmHg 63%
    19:00 +17°C° 1.2 mm 7 mps 677 mmHg 69%
    20:00 +17°C° 1.4 mm 6 mps 678 mmHg 70%
    21:00 +17°C° 1.4 mm 5 mps 678 mmHg 71%
    22:00 +16°C° 1.4 mm 5 mps 678 mmHg 72%
    23:00 +17°C° 0.7 mm 4 mps 678 mmHg 72%

    28 March, Thursday

    Time Temperature Precipitation Wind Pressure Humidity
    00:00 +17°C° 0.7 mm 3 mps 678 mmHg 71%
    01:00 +17°C° 0.7 mm 2 mps 678 mmHg 71%
    02:00 +17°C° 0.6 mm 2 mps 678 mmHg 71%
    03:00 +16°C° 0.6 mm 2 mps 678 mmHg 72%
    04:00 +16°C° 0.6 mm 2 mps 678 mmHg 73%
    05:00 +16°C° 0.3 mm 2 mps 679 mmHg 69%
    06:00 +17°C° 0.3 mm 2 mps 679 mmHg 66%
    07:00 +17°C° 0.3 mm 2 mps 680 mmHg 63%
    08:00 +19°C° 0 mm 3 mps 680 mmHg 55%
    09:00 +21°C° 0 mm 4 mps 681 mmHg 47%
    10:00 +23°C° 0 mm 5 mps 681 mmHg 39%
    11:00 +25°C° 0 mm 5 mps 681 mmHg 36%
    12:00 +26°C° 0 mm 6 mps 680 mmHg 32%
    13:00 +27°C° 0 mm 7 mps 680 mmHg 28%
    14:00 +27°C° 0 mm 7 mps 679 mmHg 27%
    15:00 +26°C° 0 mm 6 mps 679 mmHg 27%
    16:00 +26°C° 0 mm 6 mps 679 mmHg 26%
    17:00 +25°C° 0 mm 5 mps 678 mmHg 32%
    18:00 +22°C° 0 mm 3 mps 678 mmHg 37%
    19:00 +21°C° 0 mm 2 mps 678 mmHg 43%
    20:00 +20°C° 0.1 mm 2 mps 678 mmHg 45%
    21:00 +20°C° 0.1 mm 2 mps 678 mmHg 48%
    22:00 +19°C° 0.1 mm 2 mps 678 mmHg 50%
    23:00 +19°C° 0.1 mm 2 mps 678 mmHg 53%

    29 March, Friday

    Time Temperature Precipitation Wind Pressure Humidity
    00:00 +18°C° 0.1 mm 2 mps 678 mmHg 56%
    01:00 +18°C° 0.1 mm 2 mps 677 mmHg 59%
    02:00 +17°C° 0.2 mm 2 mps 677 mmHg 62%
    03:00 +17°C° 0.2 mm 2 mps 677 mmHg 65%
    04:00 +17°C° 0.2 mm 2 mps 677 mmHg 68%
    05:00 +16°C° 0.2 mm 3 mps 677 mmHg 70%
    06:00 +15°C° 0.2 mm 4 mps 678 mmHg 72%
    07:00 +14°C° 0.2 mm 5 mps 678 mmHg 74%
    08:00 +15°C° 0.4 mm 5 mps 678 mmHg 70%
    09:00 +15°C° 0.4 mm 5 mps 679 mmHg 67%
    10:00 +15°C° 0.4 mm 5 mps 679 mmHg 63%
    11:00 +16°C° 0.1 mm 5 mps 679 mmHg 59%
    12:00 +16°C° 0.1 mm 5 mps 679 mmHg 55%
    13:00 +17°C° 0.1 mm 5 mps 679 mmHg 52%
    14:00 +16°C° 0 mm 5 mps 679 mmHg 51%
    15:00 +16°C° 0 mm 5 mps 679 mmHg 51%
    16:00 +16°C° 0 mm 5 mps 679 mmHg 51%
    17:00 +15°C° 0 mm 4 mps 680 mmHg 54%
    18:00 +14°C° 0 mm 4 mps 680 mmHg 57%
    19:00 +13°C° 0 mm 3 mps 681 mmHg 60%
    20:00 +14°C° 0 mm 2 mps 681 mmHg 62%
    21:00 +13°C° 0 mm 2 mps 681 mmHg 64%
    22:00 +13°C° 0 mm 2 mps 681 mmHg 66%
    23:00 +13°C° 0 mm 2 mps 681 mmHg 67%
    Show more